N345PR KPVU-KTEX

Flight info

Callsign N345PR
Flight time 0h 55m
Altitude 31000
Route PROVO4 FFU HVE ETL
Aircraft B350/L-SBGRW/S

Departure

Time 2026-04-29 01:16
Airport Provo Municipal Airport (KPVU)

Arrival

Time 2026-04-29 02:11
Airport Telluride Regional Airport (KTEX)
Time Latitude Longitude Altitude Speed Heading
2026-04-29 01:00 40.22154 -111.71769 4496 ft 0 kts 283°
2026-04-29 01:09 40.22159 -111.71797 4500 ft 6 kts 282°
2026-04-29 01:09 40.22171 -111.71868 4496 ft 9 kts 282°
2026-04-29 01:09 40.22179 -111.71948 4496 ft 9 kts 257°
2026-04-29 01:10 40.22129 -111.71996 4498 ft 10 kts 191°
2026-04-29 01:10 40.22056 -111.72016 4497 ft 11 kts 192°
2026-04-29 01:10 40.21973 -111.72041 4497 ft 13 kts 204°
2026-04-29 01:10 40.21999 -111.72104 4497 ft 11 kts 333°
2026-04-29 01:11 40.22067 -111.72150 4496 ft 11 kts 332°
2026-04-29 01:11 40.22130 -111.72194 4500 ft 9 kts 329°
2026-04-29 01:11 40.22181 -111.72240 4499 ft 9 kts 326°
2026-04-29 01:11 40.22231 -111.72284 4499 ft 9 kts 326°
2026-04-29 01:12 40.22286 -111.72332 4500 ft 10 kts 326°
2026-04-29 01:12 40.22339 -111.72380 4503 ft 9 kts 325°
2026-04-29 01:12 40.22388 -111.72424 4503 ft 9 kts 325°
2026-04-29 01:12 40.22441 -111.72471 4504 ft 10 kts 326°
2026-04-29 01:13 40.22508 -111.72530 4504 ft 12 kts 326°
2026-04-29 01:13 40.22580 -111.72596 4504 ft 13 kts 325°
2026-04-29 01:13 40.22653 -111.72663 4502 ft 14 kts 324°
2026-04-29 01:13 40.22738 -111.72740 4502 ft 16 kts 325°
2026-04-29 01:14 40.22826 -111.72818 4499 ft 15 kts 327°
2026-04-29 01:14 40.22920 -111.72896 4499 ft 20 kts 325°
2026-04-29 01:14 40.23038 -111.73000 4499 ft 10 kts 324°
2026-04-29 01:14 40.23090 -111.73076 4501 ft 10 kts 272°
2026-04-29 01:15 40.23041 -111.73189 4503 ft 16 kts 230°
2026-04-29 01:15 40.22943 -111.73174 4503 ft 32 kts 144°
2026-04-29 01:15 40.22507 -111.72794 4500 ft 114 kts 147°
2026-04-29 01:15 40.21708 -111.72121 4631 ft 158 kts 154°
2026-04-29 01:16 40.20600 -111.72053 5134 ft 171 kts 206°
2026-04-29 01:16 40.19701 -111.73058 5771 ft 173 kts 242°
2026-04-29 01:16 40.19270 -111.74525 6487 ft 175 kts 253°
2026-04-29 01:16 40.18853 -111.76032 7124 ft 176 kts 251°
2026-04-29 01:17 40.18425 -111.77529 7785 ft 176 kts 251°
2026-04-29 01:17 40.18003 -111.79029 8457 ft 175 kts 252°
2026-04-29 01:17 40.17578 -111.80522 9148 ft 176 kts 251°
2026-04-29 01:17 40.17151 -111.82020 9818 ft 177 kts 251°
2026-04-29 01:18 40.16728 -111.83503 10572 ft 168 kts 250°
2026-04-29 01:18 40.15950 -111.86228 12084 ft 157 kts 250°
2026-04-29 01:18 40.15567 -111.87572 12760 ft 158 kts 250°
2026-04-29 01:19 40.15188 -111.88904 13448 ft 159 kts 250°
2026-04-29 01:19 40.14927 -111.90295 14126 ft 160 kts 269°
2026-04-29 01:19 40.15181 -111.91706 14746 ft 163 kts 295°
2026-04-29 01:19 40.15927 -111.92834 15363 ft 169 kts 321°
2026-04-29 01:20 40.17024 -111.93442 15974 ft 177 kts 346°
2026-04-29 01:20 40.18276 -111.93388 16578 ft 185 kts 10°
2026-04-29 01:20 40.19448 -111.92628 17174 ft 194 kts 41°
2026-04-29 01:20 40.20082 -111.91069 17799 ft 200 kts 85°
2026-04-29 01:21 40.19839 -111.89308 18387 ft 199 kts 121°
2026-04-29 01:21 40.18995 -111.87922 18920 ft 192 kts 152°
2026-04-29 01:21 40.17821 -111.87200 19408 ft 191 kts 167°
2026-04-29 01:21 40.16567 -111.86521 19877 ft 199 kts 163°
2026-04-29 01:22 40.15303 -111.85700 20352 ft 206 kts 160°
2026-04-29 01:22 40.14017 -111.84813 20839 ft 211 kts 160°
2026-04-29 01:22 40.12706 -111.83906 21327 ft 215 kts 160°
2026-04-29 01:22 40.11373 -111.82987 21830 ft 219 kts 161°
2026-04-29 01:23 40.10014 -111.82059 22334 ft 222 kts 161°
2026-04-29 01:23 40.08651 -111.81124 22848 ft 221 kts 162°
2026-04-29 01:23 40.07287 -111.80194 23365 ft 222 kts 162°
2026-04-29 01:23 40.05916 -111.79257 23877 ft 222 kts 162°
2026-04-29 01:24 40.04545 -111.78320 24314 ft 223 kts 163°
2026-04-29 01:24 40.03169 -111.77380 24763 ft 223 kts 163°
2026-04-29 01:24 40.01793 -111.76440 25217 ft 223 kts 163°
2026-04-29 01:24 40.00418 -111.75502 25664 ft 224 kts 163°
2026-04-29 01:25 39.99023 -111.74555 26018 ft 229 kts 163°
2026-04-29 01:25 39.97593 -111.73589 26336 ft 235 kts 163°
2026-04-29 01:25 39.96115 -111.72576 26586 ft 244 kts 163°
2026-04-29 01:25 39.94596 -111.71537 26851 ft 249 kts 163°
2026-04-29 01:26 39.93053 -111.70499 27111 ft 251 kts 163°
2026-04-29 01:26 39.91488 -111.69429 27383 ft 256 kts 162°
2026-04-29 01:26 39.89902 -111.68332 27653 ft 259 kts 163°
2026-04-29 01:26 39.88302 -111.67252 27920 ft 260 kts 163°
2026-04-29 01:27 39.86693 -111.66165 28196 ft 261 kts 163°
2026-04-29 01:27 39.85077 -111.65069 28465 ft 263 kts 163°
2026-04-29 01:27 39.83454 -111.63964 28746 ft 264 kts 163°
2026-04-29 01:27 39.81819 -111.62854 29026 ft 265 kts 163°
2026-04-29 01:28 39.80201 -111.61758 29292 ft 266 kts 163°
2026-04-29 01:28 39.78556 -111.60645 29575 ft 267 kts 163°
2026-04-29 01:28 39.76908 -111.59529 29860 ft 267 kts 163°
2026-04-29 01:28 39.75256 -111.58412 30148 ft 268 kts 163°
2026-04-29 01:29 39.73601 -111.57292 30400 ft 269 kts 163°
2026-04-29 01:29 39.71941 -111.56169 30637 ft 268 kts 164°
2026-04-29 01:29 39.70285 -111.55049 30881 ft 268 kts 164°
2026-04-29 01:29 39.68634 -111.53934 31124 ft 267 kts 164°
2026-04-29 01:30 39.66955 -111.52810 31151 ft 276 kts 164°
2026-04-29 01:30 39.65221 -111.51647 31151 ft 285 kts 163°
2026-04-29 01:30 39.63449 -111.50446 31162 ft 290 kts 163°
2026-04-29 01:30 39.61640 -111.49223 31165 ft 295 kts 163°
2026-04-29 01:31 39.59823 -111.48002 31164 ft 300 kts 163°
2026-04-29 01:31 39.57959 -111.46748 31166 ft 303 kts 163°
2026-04-29 01:31 39.54177 -111.44204 31165 ft 309 kts 163°
2026-04-29 01:32 39.50343 -111.41628 31162 ft 312 kts 163°
2026-04-29 01:32 39.46481 -111.39037 31153 ft 312 kts 163°
2026-04-29 01:33 39.42609 -111.36448 31154 ft 314 kts 163°
2026-04-29 01:33 39.39377 -111.34281 31151 ft 315 kts 163°
2026-04-29 01:34 39.35476 -111.31679 31144 ft 317 kts 163°
2026-04-29 01:34 39.30936 -111.28644 31138 ft 315 kts 163°
2026-04-29 01:35 39.27673 -111.26471 31134 ft 316 kts 164°
2026-04-29 01:35 39.23771 -111.23880 31121 ft 315 kts 164°
2026-04-29 01:36 39.19864 -111.21273 31110 ft 316 kts 164°
2026-04-29 01:36 39.15960 -111.18690 31099 ft 314 kts 164°
2026-04-29 01:37 39.12083 -111.16110 31086 ft 313 kts 165°
2026-04-29 01:37 39.08193 -111.13541 31071 ft 315 kts 164°
2026-04-29 01:38 39.04328 -111.10980 31061 ft 315 kts 165°
2026-04-29 01:38 39.00430 -111.08407 31060 ft 315 kts 165°
2026-04-29 01:39 38.96535 -111.05835 31044 ft 315 kts 165°
2026-04-29 01:39 38.92637 -111.03267 31047 ft 314 kts 165°
2026-04-29 01:40 38.88743 -111.00705 31031 ft 314 kts 165°
2026-04-29 01:40 38.84848 -110.98144 31026 ft 314 kts 165°
2026-04-29 01:41 38.80948 -110.95583 31022 ft 314 kts 165°
2026-04-29 01:41 38.77055 -110.93031 31021 ft 314 kts 166°
2026-04-29 01:42 38.73194 -110.90501 31015 ft 313 kts 166°
2026-04-29 01:42 38.69308 -110.87959 31024 ft 314 kts 166°
2026-04-29 01:43 38.65425 -110.85423 31030 ft 313 kts 166°
2026-04-29 01:43 38.61548 -110.82892 31042 ft 313 kts 166°
2026-04-29 01:44 38.57673 -110.80366 31057 ft 312 kts 167°
2026-04-29 01:44 38.53796 -110.77844 31069 ft 313 kts 167°
2026-04-29 01:45 38.49914 -110.75320 31080 ft 313 kts 167°
2026-04-29 01:45 38.46040 -110.72804 31083 ft 312 kts 167°
2026-04-29 01:46 38.44147 -110.71365 31081 ft 327 kts 155°
2026-04-29 01:46 38.42510 -110.69233 31088 ft 347 kts 138°
2026-04-29 01:46 38.41313 -110.66464 31093 ft 366 kts 119°
2026-04-29 01:46 38.40692 -110.63266 31096 ft 375 kts 107°
2026-04-29 01:47 38.39683 -110.56782 31089 ft 375 kts 108°
2026-04-29 01:47 38.38761 -110.50209 31072 ft 377 kts 107°
2026-04-29 01:48 38.37800 -110.43633 31048 ft 378 kts 108°
2026-04-29 01:48 38.36841 -110.37028 31032 ft 379 kts 108°
2026-04-29 01:49 38.35876 -110.30419 31012 ft 380 kts 108°
2026-04-29 01:49 38.34904 -110.23798 30981 ft 380 kts 108°
2026-04-29 01:50 38.33933 -110.17191 31008 ft 380 kts 108°
2026-04-29 01:50 38.32952 -110.10576 31010 ft 379 kts 108°
2026-04-29 01:51 38.31982 -110.04023 31019 ft 379 kts 108°
2026-04-29 01:51 38.30998 -109.97429 31016 ft 380 kts 108°
2026-04-29 01:52 38.30002 -109.90799 31023 ft 383 kts 108°
2026-04-29 01:52 38.29005 -109.84121 31023 ft 384 kts 108°
2026-04-29 01:53 38.27992 -109.77446 31017 ft 383 kts 109°
2026-04-29 01:53 38.26985 -109.70788 31032 ft 384 kts 109°
2026-04-29 01:54 38.25973 -109.64137 31033 ft 386 kts 108°
2026-04-29 01:54 38.24950 -109.57424 31036 ft 386 kts 109°
2026-04-29 01:55 38.23918 -109.50702 31038 ft 387 kts 109°
2026-04-29 01:55 38.22884 -109.43988 31046 ft 387 kts 109°
2026-04-29 01:56 38.22364 -109.40618 30919 ft 392 kts 109°
2026-04-29 01:56 38.21824 -109.37161 30400 ft 402 kts 108°
2026-04-29 01:56 38.21286 -109.33679 29862 ft 400 kts 108°
2026-04-29 01:56 38.20755 -109.30215 29285 ft 398 kts 107°
2026-04-29 01:57 38.20219 -109.26785 28724 ft 395 kts 107°
2026-04-29 01:57 38.19682 -109.23371 28153 ft 392 kts 107°
2026-04-29 01:57 38.19153 -109.19977 27599 ft 390 kts 107°
2026-04-29 01:57 38.18628 -109.16606 27066 ft 388 kts 106°
2026-04-29 01:58 38.18108 -109.13303 26546 ft 385 kts 106°
2026-04-29 01:58 38.17583 -109.09973 26026 ft 383 kts 106°
2026-04-29 01:58 38.17062 -109.06664 25519 ft 380 kts 105°
2026-04-29 01:58 38.16546 -109.03386 25018 ft 377 kts 105°
2026-04-29 01:59 38.16030 -109.00125 24523 ft 375 kts 105°
2026-04-29 01:59 38.15517 -108.96892 24040 ft 371 kts 104°
2026-04-29 01:59 38.15008 -108.93686 23544 ft 369 kts 104°
2026-04-29 01:59 38.14502 -108.90501 22981 ft 367 kts 104°
2026-04-29 02:00 38.13995 -108.87324 22420 ft 368 kts 104°
2026-04-29 02:00 38.13486 -108.84146 21882 ft 366 kts 104°
2026-04-29 02:00 38.12981 -108.80984 21369 ft 365 kts 104°
2026-04-29 02:00 38.12476 -108.77828 20865 ft 363 kts 104°
2026-04-29 02:01 38.11971 -108.74683 20369 ft 362 kts 104°
2026-04-29 02:01 38.11475 -108.71569 19878 ft 359 kts 104°
2026-04-29 02:01 38.10978 -108.68479 19425 ft 355 kts 104°
2026-04-29 02:01 38.10482 -108.65423 18978 ft 352 kts 104°
2026-04-29 02:02 38.09992 -108.62391 18535 ft 350 kts 104°
2026-04-29 02:02 38.09505 -108.59370 18059 ft 347 kts 104°
2026-04-29 02:02 38.09025 -108.56416 17563 ft 337 kts 104°
2026-04-29 02:02 38.08558 -108.53530 17068 ft 330 kts 104°
2026-04-29 02:03 38.08098 -108.50703 16578 ft 324 kts 104°
2026-04-29 02:03 38.07652 -108.47969 16113 ft 318 kts 104°
2026-04-29 02:03 38.07206 -108.45243 15643 ft 313 kts 104°
2026-04-29 02:03 38.06769 -108.42566 15177 ft 306 kts 103°
2026-04-29 02:04 38.06341 -108.39941 14714 ft 301 kts 103°
2026-04-29 02:04 38.05920 -108.37368 14269 ft 296 kts 103°
2026-04-29 02:04 38.05504 -108.34838 13881 ft 290 kts 103°
2026-04-29 02:04 38.05097 -108.32376 13470 ft 281 kts 103°
2026-04-29 02:05 38.04703 -108.29980 13064 ft 273 kts 103°
2026-04-29 02:05 38.04321 -108.27658 12869 ft 261 kts 103°
2026-04-29 02:05 38.03917 -108.25472 12870 ft 249 kts 111°
2026-04-29 02:05 38.03285 -108.23463 12876 ft 241 kts 113°
2026-04-29 02:06 38.02691 -108.21513 12892 ft 233 kts 112°
2026-04-29 02:06 38.02117 -108.19608 12904 ft 229 kts 113°
2026-04-29 02:06 38.01543 -108.17737 12913 ft 225 kts 113°
2026-04-29 02:06 38.00984 -108.15925 12921 ft 222 kts 113°
2026-04-29 02:07 38.00426 -108.14108 12936 ft 220 kts 113°
2026-04-29 02:07 37.99883 -108.12311 12942 ft 216 kts 110°
2026-04-29 02:07 37.99491 -108.10479 12708 ft 214 kts 105°
2026-04-29 02:07 37.99139 -108.08750 12395 ft 193 kts 106°
2026-04-29 02:08 37.98804 -108.07163 12099 ft 180 kts 106°
2026-04-29 02:08 37.98490 -108.05666 11812 ft 172 kts 106°
2026-04-29 02:08 37.98188 -108.04211 11550 ft 171 kts 106°
2026-04-29 02:08 37.97892 -108.02776 11288 ft 167 kts 106°
2026-04-29 02:09 37.97578 -108.01317 11008 ft 172 kts 106°
2026-04-29 02:09 37.97278 -107.99887 10752 ft 163 kts 105°
2026-04-29 02:09 37.96994 -107.98505 10481 ft 161 kts 105°
2026-04-29 02:09 37.96686 -107.97069 10224 ft 173 kts 105°
2026-04-29 02:10 37.96375 -107.95584 9869 ft 175 kts 104°
2026-04-29 02:10 37.96064 -107.94116 9537 ft 169 kts 105°
2026-04-29 02:10 37.95765 -107.92684 9171 ft 164 kts 105°
2026-04-29 02:10 37.95488 -107.91381 9042 ft 126 kts 106°
2026-04-29 02:11 37.95359 -107.90779 9046 ft 26 kts 104°
2026-04-29 02:11 37.95294 -107.90463 9057 ft 51 kts 104°
2026-04-29 02:11 37.95237 -107.90183 9061 ft 22 kts 94°
2026-04-29 02:11 37.95331 -107.90133 9067 ft 15 kts 321°
2026-04-29 02:12 37.95365 -107.90255 9066 ft 13 kts 287°
2026-04-29 02:12 37.95393 -107.90314 9066 ft 7 kts 357°
2026-04-29 02:12 37.95417 -107.90286 9066 ft 2 kts 107°
2026-04-29 02:12 37.95415 -107.90279 9066 ft 0 kts 106°